SCP
0 0 0 0 0 0 0 0 0 0 0 0 0 0 0 0 0 0 0 0 0 0 0 0 0 0 0 0 0 0 0 0 0 0 0 -0 -0 -0
0 0 0 0 0 0 0 0 0 0 0 0 0 0 0 0 0 0 0 0 0 0 0 0 0 0 0 0 0 0 0 0 0 0 0 0 0 0
0 0 0 0 0 0 0 0 0 0 0 0 0 0 0 0 0 0 0 0 0 0 0 0 0 0 0 0 0 0 0 0 0 0 0 0 0 0
0 0 0 0 0 0 0 0 0 0 0 0 0 0 0 0 0 0 0 0 0 0 0 0 0 0 0 0 0 0 0 0 0 0 0 0 0 0
0 0 0 0 0 0 0 0 0 0 0 0 0 0 0 0 0 0 0 0 0 0 0 0 0 0 0 0 0 0 0 0 0 0 0 0 0 0
0 0 0 0 0 0 0 0 0 0 0 0 0 0 0 0 0 0 0 0 0 0 0 0 0 0 0 0 0 0 0 0 0 0 0 0 0 0
0 0 0 0 0 0 0 0 0 0 0 0 0 0 0 0 0 0 0 0 0 0 0 0 0 0 0 0 0 0 0 0 0 0 0 0 0 0
0 0 0 0 0 0 0 0 0 0 0 0 0 0 0 0 0 0 0 0 0 0 0 0 0 0 0 0 0 0 0 0 0 0 0 0 0 0
0 0 0 0 0 0 0 0 0 0 0 0 0 0 0 0 0 0 0 0 0 0 0 0 0 0 0 0 0 0 0 0 0 0 0 0 0 0
0 0 0 0 0 0 0 0 0 0 0 0 0 0 0 0 0 0 0 0 0 0 0 0 0 0 0 0 0 0 0 0 0 0 0 0 0 0
0 0 0 0 0 0 0 0 0 0 0 0 0 0 0 0 0 0 0 0 0 0 0 0 0 0 0 0 0 0 0 0 0 -0 0 0 0 0
0 0 0 0 0 0 0 0 0 0 0 0 0 0 0 0 0 0 0 0 0 0 0 0 0 0 0 0 0 0 0 0 0 0 0 0 0 0
0 0 0 0 0 0 0 0 0 0 0 0 0 0 0 0 0 0 0 0 0 0 0 0 0 0 0 0 0 0 0 0 0 0 0 0 0 0
0 0 0 -0 -0 0 0 0 0 0 0 0 0 0 0 0 0 0 0 0 0 0 0 0 0 0 0 0 0 0 0 -0 0 0 0 0 0 0
0 0 0 -0 -0 0 -0 -0 0 0 0 0 0 0 0 0 0 0 0 0 0 0 0 0 0 0 0 0 0 0 0 0 0 0 0 0 0 0
-0 0 0 0 0 0 0 0 0 0 0 0 0 0 0 0 0 0 0 0 0 0 0 0 0 0 0 0 0 0 0 0 0 0 0 0 0 0
-0 -0 0 0 0 0 0 0 0 0 0 0 0 0 0 0 0 0 0 0 0 0 0 0 0 0 0 0 0 0 0 0 0 0 0 0 0 0
0 -0 0 0 0 0 0 0 0 0 0 0 0 0 0 0 0 0 0 0 0 0 0 0 0 0 0 0 0 0 0 0 0 0 0 0 0 0
0 -0 -0 0 0 0 0 0 0 0 0 0 0 0 0 0 0 0 0 0 0 0 0 0 0 0 0 0 0 0 0 0 0 0 0 0 0 0
0 0 0 0 0 0 0 0 0 0 0 0 0 0 0 0 0 0 0 0 0 0 0 0 0 0 0 0 0 0 0 0 0 0 0 0 0 0
0 0 0 0 0 0 0 0 0 0 0 0 0 0 0 0 0 0 0 0 0 0 0 0 0 0 0 0 0 0 0 0 0 0 0 0 0 0
0 0 0 0 0 0 0 0 0 0 0 0 0 0 0 0 0 0 0 0 -0 -0 -0 0 0 0 0 0 0 0 0 0 0 0 0 0 0 0
-0 0 -0 0 0 0 0 0 -0 -0 0 0 0 0 0 0 0 0 0 0 -0 -0 0 0 0 0 0 0 0 0 0 0 0 0 0 0 0 0
Wind_Speed_500mb
29 29 30 32 32 31 29 26 23 23 25 22 19 15 20 19 19 20 32 31 37 38 36 34 34 36 34 32 29 32 38 43 25 29 33 33 33 33
27 30 31 30 31 30 29 26 24 24 22 19 16 13 20 16 18 24 25 30 35 36 37 37 36 36 30 29 32 38 40 37 26 30 32 32 31 31
29 30 26 25 24 25 25 26 24 25 25 19 17 15 19 20 23 26 24 27 31 37 37 36 33 37 29 35 36 42 36 32 29 31 29 30 29 29
29 26 25 24 23 24 25 23 23 25 27 23 19 19 21 24 28 21 26 29 30 35 33 34 35 30 31 31 39 39 34 32 28 29 27 28 31 31
27 19 18 22 23 23 23 22 25 26 29 25 22 26 25 29 31 20 25 28 29 32 35 35 33 28 33 33 41 37 33 32 30 29 29 28 29 30
29 22 19 20 23 24 24 24 26 26 28 29 27 30 31 29 26 27 30 29 30 34 37 36 34 35 32 40 40 40 32 30 29 28 28 30 32 30
28 22 21 24 25 26 25 28 31 29 29 30 32 36 34 31 35 34 30 33 33 36 35 38 39 36 41 41 39 39 31 27 27 28 30 30 30 29
21 22 26 28 28 27 27 29 28 32 33 32 37 41 38 35 32 39 36 39 37 33 37 38 42 42 51 46 39 40 32 25 24 27 29 30 29 30
22 24 25 26 27 28 29 26 31 33 31 32 32 39 37 39 35 34 37 46 48 44 40 39 38 51 44 37 39 36 27 22 24 29 31 30 30 29
23 22 21 23 27 26 25 24 26 28 25 25 31 28 33 35 34 34 42 45 42 44 40 44 38 40 39 37 37 35 28 25 28 31 31 31 30 29
26 25 21 19 18 19 21 24 27 28 28 24 22 24 26 36 42 37 40 48 47 48 46 39 39 35 35 41 46 36 29 30 33 30 32 31 30 31
25 23 20 20 19 24 20 24 30 32 27 32 29 29 32 33 39 35 41 51 59 53 46 41 42 44 31 37 38 33 33 32 34 32 34 34 32 34
18 20 20 21 18 21 23 20 24 30 34 31 33 37 39 39 39 36 32 37 55 51 48 50 42 45 35 27 42 40 40 35 35 35 35 34 34 36
15 17 20 21 19 23 24 23 22 22 27 35 39 41 39 35 34 37 28 26 32 30 29 42 37 38 39 39 31 24 39 32 34 33 34 34 35 37
11 18 19 20 27 27 27 23 20 19 33 40 40 41 38 36 33 37 36 37 37 35 34 31 45 33 33 30 34 22 19 26 29 31 31 31 33 35
18 19 18 26 31 32 31 24 14 8 27 35 38 37 36 35 34 34 36 35 35 33 29 25 30 41 36 30 36 25 19 16 16 18 21 25 27 30
24 24 27 33 38 40 35 27 17 12 23 27 29 33 37 38 38 33 35 36 36 33 32 33 30 37 33 32 42 36 30 33 29 27 32 33 33 35
30 31 34 36 40 41 37 31 22 20 19 25 27 27 28 35 34 36 38 38 37 33 23 24 31 29 28 33 37 34 34 33 27 31 37 43 47 34
34 35 35 34 35 34 39 27 23 24 23 23 23 22 28 29 34 30 33 34 33 34 25 18 28 36 34 38 33 27 28 28 28 28 29 36 42 39
36 34 37 35 30 28 26 23 25 23 23 23 24 22 23 32 32 31 27 28 33 32 25 23 20 24 30 27 29 23 21 22 27 31 30 35 43 42
31 33 34 37 36 30 29 27 22 21 18 22 23 23 24 28 32 34 32 30 37 34 29 25 13 15 22 29 34 28 19 24 28 34 40 50 53 59
26 30 33 36 33 37 31 23 21 21 22 18 19 18 20 21 23 28 31 36 41 39 31 19 23 24 27 31 35 42 40 28 35 43 50 53 55 61
20 21 25 29 28 38 30 25 19 19 21 21 22 19 19 21 18 19 26 32 40 42 42 40 34 32 34 37 42 48 50 47 49 50 48 48 55 54
Wind_Direction_500mb
232 233 237 247 250 249 246 254 254 261 276 259 252 252 234 240 231 214 203 205 200 200 203 205 203 198 208 215 202 197 199 188 191 193 186 185 185 182
230 236 245 248 247 243 245 247 253 256 254 249 252 252 230 221 208 189 184 190 194 200 206 204 199 187 195 221 213 195 191 195 207 188 188 184 184 181
234 237 238 244 238 239 235 243 248 244 244 246 247 239 214 207 192 186 182 174 181 190 198 197 196 180 189 208 193 194 192 201 189 191 187 184 183 184
226 226 235 232 234 233 234 249 236 236 238 242 235 214 192 183 183 183 170 170 175 180 177 182 176 181 197 198 190 182 190 189 191 187 190 188 187 191
211 218 223 234 236 232 239 244 234 230 232 232 231 209 192 183 190 186 175 169 172 173 173 174 180 186 195 192 182 180 184 190 190 191 196 191 193 197
215 224 237 244 238 239 245 245 239 229 226 220 224 206 198 191 197 193 173 173 173 170 169 172 181 186 188 177 182 181 187 193 193 198 196 197 200 203
215 231 247 245 242 240 237 244 243 225 210 210 206 196 192 188 197 197 186 179 171 171 167 168 177 185 186 184 184 187 191 193 199 198 198 202 206 215
229 244 250 242 246 242 240 248 239 227 211 208 200 201 199 199 199 193 193 171 162 174 176 184 189 189 192 194 186 194 201 199 202 203 208 210 214 225
245 249 244 241 241 247 255 223 229 216 219 217 215 213 202 202 200 200 194 184 181 175 186 191 199 195 182 186 189 200 212 211 208 214 216 219 226 235
240 237 238 241 250 246 221 224 202 203 208 215 230 231 226 206 206 210 197 191 186 173 181 188 182 188 184 183 202 206 216 215 218 224 226 227 234 248
230 232 240 236 221 211 201 200 194 199 203 206 215 227 217 212 206 199 198 196 185 182 188 192 194 198 196 205 206 212 222 224 222 228 229 235 244 256
224 230 223 213 220 207 205 204 205 199 200 205 201 174 176 192 200 201 207 197 183 179 195 195 202 199 210 222 218 224 228 236 233 235 233 238 251 263
219 216 215 212 214 199 200 208 207 194 201 209 180 172 172 180 187 193 203 215 200 198 198 199 207 215 205 212 230 237 234 244 249 246 243 246 255 265
216 214 209 204 199 188 182 178 189 205 199 178 173 174 175 181 188 192 190 192 206 227 237 216 223 214 225 231 244 257 242 245 248 243 245 251 258 266
209 194 196 196 184 178 175 178 187 185 178 177 180 179 181 180 179 183 191 200 214 218 228 240 220 227 226 249 236 259 240 240 246 248 250 257 266 268
188 183 186 176 169 168 169 171 173 187 182 185 185 184 178 183 185 190 194 197 201 202 203 204 215 229 230 238 228 235 236 233 239 238 254 257 267 275
187 169 162 164 163 170 173 173 176 179 185 186 189 188 185 186 195 194 192 194 206 211 214 217 223 213 230 234 228 241 249 253 252 260 269 272 270 277
178 169 166 163 167 176 177 178 183 178 179 183 187 194 198 196 197 195 196 202 204 205 202 208 202 206 218 223 232 243 250 258 266 271 277 283 285 284
178 172 170 179 183 193 184 181 187 183 187 194 197 203 207 204 199 199 204 208 211 203 203 221 220 226 232 242 242 253 260 272 280 277 285 285 289 297
183 180 180 179 175 177 182 182 185 190 199 202 204 210 205 205 206 212 215 209 203 195 204 208 213 223 236 255 275 270 271 277 285 291 291 296 299 299
187 180 184 182 176 178 179 185 194 192 201 197 196 201 198 201 209 215 218 208 198 204 209 215 231 262 268 275 282 293 292 290 293 295 300 304 304 302
175 187 197 193 192 187 185 186 186 186 187 182 188 201 209 217 222 224 224 218 215 216 218 251 277 275 276 282 291 300 302 296 295 298 303 307 309 307
167 171 181 200 209 188 184 175 175 183 185 189 193 199 219 229 233 228 224 224 226 234 247 270 272 272 273 287 298 306 306 300 300 300 300 302 299 299
Wind_Speed_850mb
29 29 30 32 32 31 29 26 23 23 25 22 19 15 20 19 19 20 32 31 37 38 36 34 34 36 34 32 29 32 38 43 25 29 33 33 33 33
27 30 31 30 31 30 29 26 24 24 22 19 16 13 20 16 18 24 25 30 35 36 37 37 36 36 30 29 32 38 40 37 26 30 32 32 31 31
29 30 26 25 24 25 25 26 24 25 25 19 17 15 19 20 23 26 24 27 31 37 37 36 33 37 29 35 36 42 36 32 29 31 29 30 29 29
29 26 25 24 23 24 25 23 23 25 27 23 19 19 21 24 28 21 26 29 30 35 33 34 35 30 31 31 39 39 34 32 28 29 27 28 31 31
27 19 18 22 23 23 23 22 25 26 29 25 22 26 25 29 31 20 25 28 29 32 35 35 33 28 33 33 41 37 33 32 30 29 29 28 29 30
29 22 19 20 23 24 24 24 26 26 28 29 27 30 31 29 26 27 30 29 30 34 37 36 34 35 32 40 40 40 32 30 29 28 28 30 32 30
28 22 21 24 25 26 25 28 31 29 29 30 32 36 34 31 35 34 30 33 33 36 35 38 39 36 41 41 39 39 31 27 27 28 30 30 30 29
21 22 26 28 28 27 27 29 28 32 33 32 37 41 38 35 32 39 36 39 37 33 37 38 42 42 51 46 39 40 32 25 24 27 29 30 29 30
22 24 25 26 27 28 29 26 31 33 31 32 32 39 37 39 35 34 37 46 48 44 40 39 38 51 44 37 39 36 27 22 24 29 31 30 30 29
23 22 21 23 27 26 25 24 26 28 25 25 31 28 33 35 34 34 42 45 42 44 40 44 38 40 39 37 37 35 28 25 28 31 31 31 30 29
26 25 21 19 18 19 21 24 27 28 28 24 22 24 26 36 42 37 40 48 47 48 46 39 39 35 35 41 46 36 29 30 33 30 32 31 30 31
25 23 20 20 19 24 20 24 30 32 27 32 29 29 32 33 39 35 41 51 59 53 46 41 42 44 31 37 38 33 33 32 34 32 34 34 32 34
18 20 20 21 18 21 23 20 24 30 34 31 33 37 39 39 39 36 32 37 55 51 48 50 42 45 35 27 42 40 40 35 35 35 35 34 34 36
15 17 20 21 19 23 24 23 22 22 27 35 39 41 39 35 34 37 28 26 32 30 29 42 37 38 39 39 31 24 39 32 34 33 34 34 35 37
11 18 19 20 27 27 27 23 20 19 33 40 40 41 38 36 33 37 36 37 37 35 34 31 45 33 33 30 34 22 19 26 29 31 31 31 33 35
18 19 18 26 31 32 31 24 14 8 27 35 38 37 36 35 34 34 36 35 35 33 29 25 30 41 36 30 36 25 19 16 16 18 21 25 27 30
24 24 27 33 38 40 35 27 17 12 23 27 29 33 37 38 38 33 35 36 36 33 32 33 30 37 33 32 42 36 30 33 29 27 32 33 33 35
30 31 34 36 40 41 37 31 22 20 19 25 27 27 28 35 34 36 38 38 37 33 23 24 31 29 28 33 37 34 34 33 27 31 37 43 47 34
34 35 35 34 35 34 39 27 23 24 23 23 23 22 28 29 34 30 33 34 33 34 25 18 28 36 34 38 33 27 28 28 28 28 29 36 42 39
36 34 37 35 30 28 26 23 25 23 23 23 24 22 23 32 32 31 27 28 33 32 25 23 20 24 30 27 29 23 21 22 27 31 30 35 43 42
31 33 34 37 36 30 29 27 22 21 18 22 23 23 24 28 32 34 32 30 37 34 29 25 13 15 22 29 34 28 19 24 28 34 40 50 53 59
26 30 33 36 33 37 31 23 21 21 22 18 19 18 20 21 23 28 31 36 41 39 31 19 23 24 27 31 35 42 40 28 35 43 50 53 55 61
20 21 25 29 28 38 30 25 19 19 21 21 22 19 19 21 18 19 26 32 40 42 42 40 34 32 34 37 42 48 50 47 49 50 48 48 55 54
Wind_Direction_850mb
232 233 237 247 250 249 246 254 254 261 276 259 252 252 234 240 231 214 203 205 200 200 203 205 203 198 208 215 202 197 199 188 191 193 186 185 185 182
230 236 245 248 247 243 245 247 253 256 254 249 252 252 230 221 208 189 184 190 194 200 206 204 199 187 195 221 213 195 191 195 207 188 188 184 184 181
234 237 238 244 238 239 235 243 248 244 244 246 247 239 214 207 192 186 182 174 181 190 198 197 196 180 189 208 193 194 192 201 189 191 187 184 183 184
226 226 235 232 234 233 234 249 236 236 238 242 235 214 192 183 183 183 170 170 175 180 177 182 176 181 197 198 190 182 190 189 191 187 190 188 187 191
211 218 223 234 236 232 239 244 234 230 232 232 231 209 192 183 190 186 175 169 172 173 173 174 180 186 195 192 182 180 184 190 190 191 196 191 193 197
215 224 237 244 238 239 245 245 239 229 226 220 224 206 198 191 197 193 173 173 173 170 169 172 181 186 188 177 182 181 187 193 193 198 196 197 200 203
215 231 247 245 242 240 237 244 243 225 210 210 206 196 192 188 197 197 186 179 171 171 167 168 177 185 186 184 184 187 191 193 199 198 198 202 206 215
229 244 250 242 246 242 240 248 239 227 211 208 200 201 199 199 199 193 193 171 162 174 176 184 189 189 192 194 186 194 201 199 202 203 208 210 214 225
245 249 244 241 241 247 255 223 229 216 219 217 215 213 202 202 200 200 194 184 181 175 186 191 199 195 182 186 189 200 212 211 208 214 216 219 226 235
240 237 238 241 250 246 221 224 202 203 208 215 230 231 226 206 206 210 197 191 186 173 181 188 182 188 184 183 202 206 216 215 218 224 226 227 234 248
230 232 240 236 221 211 201 200 194 199 203 206 215 227 217 212 206 199 198 196 185 182 188 192 194 198 196 205 206 212 222 224 222 228 229 235 244 256
224 230 223 213 220 207 205 204 205 199 200 205 201 174 176 192 200 201 207 197 183 179 195 195 202 199 210 222 218 224 228 236 233 235 233 238 251 263
219 216 215 212 214 199 200 208 207 194 201 209 180 172 172 180 187 193 203 215 200 198 198 199 207 215 205 212 230 237 234 244 249 246 243 246 255 265
216 214 209 204 199 188 182 178 189 205 199 178 173 174 175 181 188 192 190 192 206 227 237 216 223 214 225 231 244 257 242 245 248 243 245 251 258 266
209 194 196 196 184 178 175 178 187 185 178 177 180 179 181 180 179 183 191 200 214 218 228 240 220 227 226 249 236 259 240 240 246 248 250 257 266 268
188 183 186 176 169 168 169 171 173 187 182 185 185 184 178 183 185 190 194 197 201 202 203 204 215 229 230 238 228 235 236 233 239 238 254 257 267 275
187 169 162 164 163 170 173 173 176 179 185 186 189 188 185 186 195 194 192 194 206 211 214 217 223 213 230 234 228 241 249 253 252 260 269 272 270 277
178 169 166 163 167 176 177 178 183 178 179 183 187 194 198 196 197 195 196 202 204 205 202 208 202 206 218 223 232 243 250 258 266 271 277 283 285 284
178 172 170 179 183 193 184 181 187 183 187 194 197 203 207 204 199 199 204 208 211 203 203 221 220 226 232 242 242 253 260 272 280 277 285 285 289 297
183 180 180 179 175 177 182 182 185 190 199 202 204 210 205 205 206 212 215 209 203 195 204 208 213 223 236 255 275 270 271 277 285 291 291 296 299 299
187 180 184 182 176 178 179 185 194 192 201 197 196 201 198 201 209 215 218 208 198 204 209 215 231 262 268 275 282 293 292 290 293 295 300 304 304 302
175 187 197 193 192 187 185 186 186 186 187 182 188 201 209 217 222 224 224 218 215 216 218 251 277 275 276 282 291 300 302 296 295 298 303 307 309 307
167 171 181 200 209 188 184 175 175 183 185 189 193 199 219 229 233 228 224 224 226 234 247 270 272 272 273 287 298 306 306 300 300 300 300 302 299 299